This is the latest recevied weather packets stored in our database for station/object KA1AL. If no packets are shown the sender has not sent any weather packets the latest 10 day(s).
| Time | Temp. | Humidity | Pressure | Rain* | Wind** | Luminosity | Snow |
|---|---|---|---|---|---|---|---|
| 1778073875 | 11.67° C | 99% | 1009 hPa | 0 mm | - | 75 W/m² | - |
| 1778073572 | 11.67° C | 99% | 1008.8 hPa | 0 mm | - | 69 W/m² | - |
| 1778073268 | 11.67° C | 99% | 1009.3 hPa | 0 mm | - | 53 W/m² | - |
| 1778072966 | 11.67° C | 99% | 1009.3 hPa | 0 mm | - | 49 W/m² | - |
| 1778072662 | 11.11° C | 99% | 1009.3 hPa | 0 mm | - | 60 W/m² | - |
| 1778072360 | 11.11° C | 99% | 1009 hPa | 0 mm | - | 66 W/m² | - |
| 1778072058 | 11.11° C | 99% | 1009.1 hPa | 0 mm | - | 78 W/m² | - |
| 1778071756 | 11.11° C | 99% | 1009.2 hPa | 0 mm | - | 64 W/m² | - |
| 1778071453 | 11.67° C | 99% | 1009 hPa | 0 mm | - | 86 W/m² | - |
| 1778071151 | 11.11° C | 99% | 1009.1 hPa | 0 mm | - | 130 W/m² | - |
| 1778070849 | 11.11° C | 99% | 1009.1 hPa | 0 mm | - | 118 W/m² | - |
| 1778070546 | 11.11° C | 99% | 1009.3 hPa | 0 mm | - | 109 W/m² | - |
| 1778070242 | 11.11° C | 99% | 1009.2 hPa | 0 mm | - | 115 W/m² | - |
| 1778069941 | 11.11° C | 99% | 1009.2 hPa | 0 mm | - | 115 W/m² | - |
| 1778069637 | 11.11° C | 99% | 1009.1 hPa | 0 mm | - | 128 W/m² | - |
| 1778069334 | 11.11° C | 99% | 1009.5 hPa | 0 mm | - | 108 W/m² | - |
| 1778069032 | 11.11° C | 99% | 1009.4 hPa | 0 mm | - | 92 W/m² | - |
| 1778068729 | 11.11° C | 99% | 1009.3 hPa | 0 mm | - | 100 W/m² | - |
| 1778068427 | 11.11° C | 99% | 1009 hPa | 0 mm | - | 96 W/m² | - |
| 1778068125 | 11.11° C | 99% | 1009 hPa | 0 mm | - | 114 W/m² | - |
| 1778067822 | 11.11° C | 99% | 1009.1 hPa | 0 mm | - | 120 W/m² | - |
| 1778067521 | 11.11° C | 99% | 1009.2 hPa | 0 mm | - | 76 W/m² | - |
| 1778067218 | 11.11° C | 99% | 1009.6 hPa | 0 mm | - | 81 W/m² | - |
| 1778066915 | 10.56° C | 99% | 1009.3 hPa | 0 mm | - | 71 W/m² | - |
| 1778066612 | 10.56° C | 99% | 1009.4 hPa | 0 mm | - | 75 W/m² | - |
* Rain latest hour (hover to see other rain measurements)
** Current wind speed in m/s (hover to see current wind gust speed)